TimeEST,TemperatureF,Dew PointF,Humidity,Sea Level PressureIn,VisibilityMPH,Wind Direction,Wind SpeedMPH,Gust SpeedMPH,PrecipitationIn,Events,Conditions,WindDirDegrees,DateUTC
12:56 AM,21.9,17.1,82,30.05,10.0,NW,4.6,-,N/A,,Clear,310,2012-02-20 05:56:00
1:56 AM,26.1,14.0,60,30.05,10.0,NW,3.5,-,N/A,,Clear,320,2012-02-20 06:56:00
2:56 AM,26.1,14.0,60,30.05,10.0,Calm,Calm,-,N/A,,Clear,0,2012-02-20 07:56:00
3:56 AM,21.9,14.0,72,30.07,10.0,Calm,Calm,-,N/A,,Clear,0,2012-02-20 08:56:00
4:56 AM,19.9,14.0,78,30.07,10.0,NW,4.6,-,N/A,,Clear,320,2012-02-20 09:56:00
5:56 AM,25.0,14.0,63,30.08,10.0,NNW,11.5,-,N/A,,Clear,330,2012-02-20 10:56:00
6:56 AM,24.1,14.0,65,30.10,10.0,NW,6.9,-,N/A,,Clear,320,2012-02-20 11:56:00
7:56 AM,26.6,15.8,64,30.07,10.0,NW,4.6,-,N/A,,Clear,310,2012-02-20 12:56:00
8:56 AM,28.4,14.0,55,30.08,10.0,NNW,10.4,-,N/A,,Clear,330,2012-02-20 13:56:00
9:56 AM,32.0,12.0,44,30.13,10.0,NW,12.7,-,N/A,,Clear,310,2012-02-20 14:56:00
10:56 AM,34.0,9.0,35,30.14,10.0,NNW,11.5,19.6,N/A,,Clear,330,2012-02-20 15:56:00
11:56 AM,37.0,8.1,30,30.14,10.0,NNW,10.4,18.4,N/A,,Clear,330,2012-02-20 16:56:00
12:56 PM,39.0,6.1,26,30.14,10.0,NNW,17.3,23.0,N/A,,Clear,340,2012-02-20 17:56:00
1:56 PM,39.9,5.0,23,30.14,10.0,NNW,17.3,31.1,N/A,,Clear,330,2012-02-20 18:56:00
2:56 PM,39.9,6.1,25,30.15,10.0,NNW,20.7,29.9,N/A,,Clear,330,2012-02-20 19:56:00
3:56 PM,37.9,8.1,29,30.19,10.0,NW,23.0,33.4,N/A,,Clear,320,2012-02-20 20:56:00
4:56 PM,36.0,8.1,31,30.21,10.0,North,15.0,26.5,N/A,,Clear,350,2012-02-20 21:56:00
5:56 PM,35.1,9.0,34,30.24,10.0,NNW,11.5,23.0,N/A,,Clear,330,2012-02-20 22:56:00
6:56 PM,33.1,10.0,38,30.26,10.0,NW,12.7,-,N/A,,Clear,310,2012-02-20 23:56:00
7:56 PM,32.0,10.0,40,30.28,10.0,NW,4.6,-,N/A,,Clear,320,2012-02-21 00:56:00
8:56 PM,30.9,12.9,47,30.31,10.0,NNW,6.9,-,N/A,,Clear,340,2012-02-21 01:56:00
9:56 PM,28.9,14.0,54,30.32,10.0,WNW,3.5,-,N/A,,Clear,300,2012-02-21 02:56:00
10:56 PM,28.9,14.0,54,30.33,10.0,West,4.6,-,N/A,,Clear,280,2012-02-21 03:56:00
11:56 PM,26.1,15.1,63,30.34,10.0,Calm,Calm,-,N/A,,Clear,0,2012-02-21 04:56:00